Flag for Germany Weather past 2 weeks in Minden, North Rhine-Westphalia, Germany

Now
57 °F

Partly sunny.


Feels Like: 55 °F
Forecast: 51 / 59 °F
Wind: 9 mph from South

Location: Bueckeburg

Current Time: Oct 24, 2014 at 1:18:49 PM

Latest Report: Oct 24, 2014 at 12:20 PM


Visibility: N/A

Pressure: 30.15 "Hg

Humidity: 67%

Dew point: 46 °F

Location of MindenLocation

Historic Weather in Minden — Graph

°F

Minden temperature yesterday

Maximum temperature yesterday: 54 °F (at 4:20 PM)
Minimum temperature yesterday: 46 °F (at 6:20 AM)
Average temperature yesterday: 51 °F

Past Weeks' High & Low Weather Summary

 TemperatureHumidityPressure
High73 °F (Oct 19, 2:20 PM)100% (Oct 11, 2:20 AM)30.21 "Hg (Oct 11, 2:20 AM)
Low46 °F (Oct 22, 2:20 AM)49% (Oct 14, 4:20 PM)29.42 "Hg (Oct 21, 5:20 PM)
Average57 °F82%29.87 "Hg
* Reported Oct 9 11:20 AM — Oct 24 11:20 AM, Minden, Weather by CustomWeather, © 2014

Note: Actual official high and low records may vary slightly from our data, if they occured in-between our weather recording intervals... More about our weather records

Advertising

Minden weather history for previous 24 hours

 ConditionsComfort  
Time TempWeatherWind HumidityBarometerVisibility
11:20 AM
Oct 24
54 °FPartly sunny.6 mph77%30.15 "HgN/A
10:20 AM52 °FPartly sunny.6 mph82%30.18 "HgN/A
9:20 AM52 °FPartly sunny.6 mph88%30.18 "HgN/A
8:20 AM52 °FOvercast.7 mph82%30.15 "HgN/A
7:20 AM52 °FOvercast.7 mph82%30.15 "HgN/A
6:20 AM52 °FPassing clouds.7 mph82%30.15 "HgN/A
5:20 AM52 °FPassing clouds.7 mph82%30.15 "HgN/A
4:20 AM52 °FPassing clouds.7 mph82%30.15 "HgN/A
3:20 AM50 °FPassing clouds.7 mph88%30.18 "HgN/A
2:20 AM52 °FPassing clouds.7 mph82%30.18 "HgN/A
1:20 AM52 °FPassing clouds.6 mph82%30.18 "HgN/A
12:20 AM52 °FPassing clouds.7 mph82%30.18 "HgN/A
11:20 PM
Oct 23
54 °FPassing clouds.6 mph77%30.18 "HgN/A
10:20 PM54 °FPassing clouds.8 mph82%30.18 "HgN/A
9:20 PM52 °FPassing clouds.8 mph88%30.18 "HgN/A
8:20 PM52 °FPassing clouds.7 mph88%30.18 "HgN/A
7:20 PM52 °FPassing clouds.7 mph88%30.18 "HgN/A
6:20 PM52 °FPartly sunny.2 mph88%30.18 "HgN/A
5:20 PM52 °FPartly sunny.6 mph88%30.18 "HgN/A
4:20 PM54 °FPartly sunny.7 mph82%30.18 "HgN/A
3:20 PM52 °FBroken clouds.7 mph88%30.18 "HgN/A
2:20 PM52 °FPartly sunny.8 mph82%30.18 "HgN/A
1:20 PM52 °FPartly sunny.8 mph82%30.21 "HgN/A
Weather by CustomWeather, © 2014

See weather overviewHow to use our weather pages